Wind_Speed
12 12 12 12 12 12 13 13 12 11 10 9 9 8 8 11 13 12 11 11 10 9 8 8 8 9 9 8 7 6 5 4 4 3 2 2 1 1 1 1 1 1 1 1 2 2 2 1 1
13 13 13 13 13 13 15 14 13 12 11 10 10 9 9 11 13 13 13 12 12 11 10 8 8 8 8 8 7 6 5 5 4 3 3 3 2 2 2 2 2 2 2 2 2 2 2 2 1
13 14 14 15 14 14 17 16 15 14 13 12 11 10 10 11 13 13 13 13 12 11 10 9 8 8 8 7 6 6 5 5 4 4 4 4 3 3 3 3 4 4 4 4 4 4 3 3 3
14 14 15 15 16 16 17 17 17 16 14 12 11 11 10 11 13 13 14 13 13 11 10 10 9 9 8 7 7 6 5 5 4 5 5 4 5 5 5 5 5 6 6 5 5 5 5 5 4
14 14 15 15 16 17 17 17 16 16 15 13 12 12 11 11 13 14 15 14 14 12 11 11 10 9 8 8 7 6 6 6 6 6 6 6 6 6 7 7 7 7 7 7 7 6 6 6 6
13 13 13 14 16 17 17 16 16 15 15 13 12 12 11 12 13 14 16 16 15 14 12 11 11 10 9 8 7 7 7 7 7 7 7 7 7 8 8 8 8 8 9 9 9 8 7 7 7
13 12 12 13 15 16 15 14 13 13 14 14 13 12 12 13 14 15 17 18 17 15 14 13 12 11 10 9 8 8 8 7 7 8 8 8 9 9 10 10 9 9 9 9 9 9 9 8 8
13 12 12 12 13 14 13 13 12 12 13 13 12 12 13 14 15 16 18 19 18 17 15 14 13 13 12 10 9 9 8 8 8 8 9 9 9 10 11 10 9 9 9 9 9 9 9 9 8
13 12 11 12 12 13 13 12 12 12 11 12 13 13 14 16 17 18 19 20 20 19 17 16 15 14 13 12 11 10 9 9 8 8 9 9 10 10 11 10 10 9 9 9 9 9 9 8 7
13 12 12 13 13 13 13 13 12 11 11 12 13 13 14 16 18 20 21 22 22 21 19 18 17 16 14 13 12 10 10 9 9 9 9 9 10 10 10 10 9 9 9 9 9 8 8 7 6
13 13 14 14 14 14 14 13 12 10 10 11 12 13 15 17 20 23 24 24 24 24 22 20 19 18 16 14 12 11 10 9 9 8 9 9 9 9 9 9 9 8 8 9 8 8 7 7 7
14 14 14 14 15 15 15 14 13 11 10 10 11 13 15 18 21 23 24 25 26 24 24 22 20 19 18 15 13 11 9 8 8 8 8 8 8 7 7 7 7 7 7 7 8 7 7 7 7
13 14 14 15 16 16 15 15 14 13 13 12 12 14 14 17 21 24 26 26 26 25 25 23 21 20 18 15 13 10 9 8 7 7 7 6 6 6 6 6 5 5 6 6 6 5 6 6 7
13 14 14 15 17 17 16 16 15 14 14 13 12 14 16 17 19 22 25 25 26 26 25 23 22 20 18 15 12 10 8 8 6 5 5 4 4 4 4 4 4 4 4 4 4 4 5 5 5
13 14 16 17 18 18 18 18 17 15 15 13 11 12 14 17 19 22 25 26 26 26 25 24 21 19 17 14 11 10 9 8 6 4 4 3 3 3 3 4 3 3 3 4 4 4 4 4 4
14 15 16 18 19 19 19 19 19 17 15 14 10 9 11 15 18 21 24 26 26 26 25 24 20 18 15 13 11 9 8 6 5 4 2 2 2 2 3 3 3 3 3 3 3 3 3 3 4
14 13 14 18 19 19 19 19 20 18 15 13 9 7 7 10 15 20 23 25 25 25 24 22 20 18 15 12 11 9 7 6 5 3 2 1 1 2 2 3 3 3 3 3 3 3 3 3 3
12 13 15 17 19 19 19 20 20 18 15 13 9 6 5 8 12 17 21 22 23 24 23 21 18 17 15 12 10 9 7 6 4 3 2 1 1 2 2 2 2 2 3 3 3 3 3 4 4
13 15 15 16 18 18 18 18 18 17 15 12 9 6 4 5 10 13 16 18 21 21 21 19 18 16 14 12 10 8 6 5 4 3 2 2 1 1 1 2 2 2 2 3 3 3 3 4 4
13 14 14 15 16 17 17 16 17 16 14 12 8 6 4 2 7 11 14 17 18 19 19 18 17 15 13 12 9 7 6 5 4 3 3 2 2 1 0 1 2 2 2 2 3 3 3 3 3
13 13 13 15 16 16 17 16 16 14 13 11 9 7 5 2 5 9 12 15 16 17 17 17 16 14 13 11 9 8 6 5 4 4 3 3 2 1 0 0 1 1 2 3 3 3 3 4 4
12 13 13 14 14 15 16 15 15 14 13 11 9 7 5 3 4 7 10 12 15 16 17 16 15 13 11 10 9 7 6 5 5 4 4 3 2 2 1 1 0 0 1 2 3 4 4 5 6
13 13 14 14 13 13 15 12 13 12 12 11 10 7 5 4 3 6 9 11 13 15 15 14 12 11 10 9 8 7 6 5 5 5 4 4 3 3 2 2 2 2 2 3 4 5 6 7 8
14 14 14 14 12 11 14 11 10 10 10 10 9 7 5 4 4 5 8 10 11 12 12 12 11 10 9 9 8 7 6 6 6 6 5 5 5 4 4 4 4 4 5 6 7 7 8 9 10
14 13 12 11 10 12 13 10 9 8 8 8 7 6 4 3 3 4 6 9 11 11 11 10 10 9 9 9 8 7 7 7 7 7 6 6 7 7 7 7 7 8 9 9 10 10 11 11 12
14 13 11 10 10 11 13 10 9 8 7 7 6 5 4 2 1 2 4 7 8 9 9 9 9 9 9 9 9 9 9 9 9 9 8 8 9 9 10 11 11 11 11 12 13 13 14 14 15
15 13 12 11 11 9 10 11 10 9 8 7 6 5 4 3 1 2 4 5 7 8 9 9 9 9 9 10 10 10 11 11 11 11 11 11 12 13 13 14 14 14 15 16 16 16 17 17 18
14 14 13 10 10 9 9 9 10 10 9 8 7 6 5 4 3 4 5 6 7 8 9 10 10 11 11 12 12 12 13 14 14 14 14 14 15 16 17 17 18 18 18 19 19 20 20 20 20
15 14 12 10 10 8 8 10 12 10 10 9 9 8 6 6 5 6 6 7 8 9 10 12 13 13 13 13 14 15 16 16 17 17 18 19 19 20 20 21 22 22 22 22 22 23 23 23 23
15 13 12 10 11 9 7 11 12 11 10 9 9 8 8 8 7 7 9 9 10 11 12 13 14 14 15 16 16 17 18 19 20 21 21 22 23 24 25 25 25 26 26 26 25 25 25 26 26
Wind_Direction
320 317 316 316 315 313 307 306 306 304 298 290 281 270 252 246 241 235 227 223 220 216 210 209 212 215 218 219 218 217 210 200 196 197 206 221 234 245 256 266 274 287 309 326 328 328 338 349 353
318 315 313 312 311 305 301 304 304 301 296 289 281 269 260 251 241 236 230 225 221 218 213 214 218 220 220 221 220 219 214 210 214 221 231 237 245 252 258 266 271 272 279 291 300 304 298 292 292
317 313 310 308 304 295 295 300 299 298 294 287 282 272 262 249 240 234 229 227 219 219 218 216 219 221 224 224 223 224 225 226 229 232 238 245 253 260 262 267 274 278 281 284 289 289 284 276 268
318 315 311 307 301 298 296 298 297 296 293 286 279 272 259 248 237 230 224 220 213 218 221 219 221 223 226 227 224 226 231 235 241 245 251 261 269 273 276 277 280 280 281 286 288 285 276 268 261
323 319 315 311 304 302 300 298 296 295 292 283 276 267 254 244 233 227 221 218 215 218 223 222 222 222 226 228 228 232 239 246 254 261 268 275 280 284 285 285 284 285 282 282 288 288 276 266 259
326 325 319 309 307 305 303 300 297 294 290 282 271 263 251 236 225 221 218 218 221 221 226 228 228 227 229 230 233 240 248 254 263 272 278 281 284 288 291 293 289 287 284 285 286 290 282 265 257
332 330 321 315 313 311 309 305 298 292 287 281 268 257 245 231 223 220 221 219 221 223 226 229 228 229 230 234 240 246 253 262 273 282 285 286 288 290 293 298 296 291 288 286 286 286 284 269 256
340 338 332 328 323 317 315 310 303 295 285 276 264 252 241 231 223 218 218 219 221 223 226 230 232 233 237 240 245 250 260 270 280 285 287 288 290 293 296 298 297 295 292 288 285 285 284 277 264
348 349 344 337 330 323 320 314 306 298 286 275 263 249 239 231 220 218 218 219 220 222 226 229 235 236 239 243 247 254 265 276 281 282 285 288 291 294 296 296 295 291 290 288 285 287 290 282 270
356 356 348 341 335 330 327 322 314 301 288 276 262 247 235 227 219 217 218 218 217 220 225 229 232 236 239 242 248 257 267 274 276 278 284 290 292 293 294 296 294 291 288 289 286 285 287 279 268
357 352 344 339 336 334 329 325 321 309 291 272 259 245 229 222 216 217 215 216 218 221 224 229 234 236 238 243 250 257 264 268 270 274 284 290 289 288 289 293 294 290 290 291 287 286 280 271 265
354 348 344 340 338 337 334 329 323 316 300 276 258 241 227 218 216 215 213 215 218 221 224 230 234 236 237 242 248 255 258 261 266 273 281 286 287 286 286 290 294 290 289 291 288 285 281 271 266
353 348 346 343 341 340 336 333 326 317 306 290 269 247 234 222 218 218 216 214 216 221 225 229 232 234 234 238 243 246 250 255 261 269 275 281 285 286 289 292 294 297 294 292 288 286 284 275 265
352 348 346 345 344 341 337 333 328 322 312 300 277 251 237 231 224 219 217 216 217 220 223 226 230 232 233 236 237 239 242 245 254 265 275 286 291 296 300 299 297 302 305 299 295 294 287 280 270
350 345 343 341 340 341 338 336 332 328 321 311 286 261 242 234 226 218 215 215 216 219 221 224 226 227 230 232 234 236 238 242 245 253 267 282 296 310 319 320 315 308 311 310 305 299 295 287 282
349 348 343 339 341 340 342 342 337 331 326 320 301 273 253 234 224 218 214 213 217 219 220 223 220 221 224 225 227 232 229 226 228 235 254 280 308 324 328 335 333 326 319 317 313 308 309 302 298
345 342 335 335 341 343 344 344 340 337 335 330 318 289 255 232 218 213 214 214 216 217 215 214 213 215 217 217 219 221 216 213 215 222 240 270 309 330 336 336 330 327 325 326 325 321 320 312 303
328 333 333 334 339 343 345 345 343 343 340 337 330 315 272 234 216 210 208 212 213 211 209 209 209 210 213 216 214 211 208 207 211 219 234 255 293 322 336 346 342 334 330 332 330 323 317 312 304
335 335 334 333 336 341 344 345 346 349 347 348 348 343 308 224 207 201 201 205 204 202 200 202 203 205 205 201 201 201 203 204 211 221 225 238 254 285 338 12 9 359 347 340 336 333 327 319 312
334 335 334 334 338 342 344 346 347 350 353 356 359 0 353 217 193 197 197 200 198 197 198 198 197 197 198 199 196 197 197 202 207 210 213 215 219 238 358 30 29 29 26 22 12 3 358 354 343
331 334 332 335 339 344 348 351 352 354 356 1 6 9 18 85 173 183 188 193 194 191 190 193 194 195 198 197 195 197 196 197 202 206 205 204 208 221 230 6 32 36 36 30 20 13 7 359 349
325 328 332 337 341 341 348 351 352 359 1 3 8 17 27 66 137 165 176 181 184 185 185 188 190 194 197 197 200 200 197 200 204 208 205 205 213 221 221 229 254 356 11 7 2 359 352 345 337
316 325 329 334 334 337 342 353 350 358 5 10 15 26 41 66 115 149 160 169 177 180 182 186 189 194 198 201 202 202 205 207 209 209 211 217 226 235 238 242 257 285 304 314 318 322 324 324 323
308 319 328 334 340 335 332 346 343 350 2 8 16 28 44 67 105 135 161 168 177 181 183 188 193 201 206 208 211 213 215 217 219 220 223 230 239 248 257 263 271 279 284 290 293 298 303 307 309
304 317 331 332 329 318 321 331 329 336 348 2 11 19 33 58 97 136 164 178 181 185 188 194 202 209 213 217 222 224 226 227 231 232 234 240 249 257 264 270 274 278 282 284 287 289 293 295 297
298 306 308 306 304 310 315 317 316 322 330 345 357 6 15 23 58 171 171 178 184 189 198 207 211 216 223 229 232 234 235 237 239 242 245 249 257 263 267 271 273 276 279 281 283 285 287 288 291
289 296 299 306 310 315 303 308 306 309 313 320 332 342 345 342 321 217 208 201 204 207 212 215 222 230 235 238 239 241 244 246 249 251 253 257 261 265 269 272 273 274 276 279 281 283 285 285 286
284 289 295 299 301 301 300 299 292 302 305 305 310 318 318 306 288 259 240 232 228 226 228 232 236 240 242 243 245 247 250 253 256 258 260 262 265 267 270 272 274 275 277 278 280 282 283 284 285
280 284 287 287 291 294 286 282 283 288 292 293 296 301 305 298 283 267 258 249 244 241 242 243 245 247 249 250 251 252 254 257 260 263 265 267 269 271 272 274 275 276 277 279 280 282 282 283 284
274 277 280 282 292 294 281 278 280 281 284 284 286 288 289 288 284 273 261 255 252 251 250 251 253 255 256 257 257 257 258 260 263 266 268 270 272 273 275 276 277 278 279 280 281 283 283 283 283
Height
5915 5914 5913 5913 5913 5913 5912 5911 5910 5909 5908 5907 5907 5906 5906 5906 5906 5909 5907 5906 5907 5907 5907 5907 5908 5909 5909 5910 5910 5910 5910 5910 5910 5910 5910 5910 5910 5910 5910 5910 5910 5910 5910 5909 5909 5909 5909 5908 5908
5913 5912 5912 5911 5911 5911 5910 5908 5908 5907 5906 5906 5905 5904 5904 5903 5903 5904 5904 5904 5905 5905 5906 5906 5907 5908 5909 5909 5910 5910 5910 5910 5910 5910 5910 5910 5910 5910 5910 5910 5909 5909 5909 5909 5908 5908 5908 5908 5907
5911 5910 5910 5909 5908 5909 5907 5905 5905 5904 5903 5903 5902 5902 5902 5901 5901 5901 5902 5902 5903 5904 5904 5905 5906 5907 5908 5908 5909 5909 5909 5909 5909 5909 5909 5909 5909 5909 5909 5909 5909 5908 5908 5908 5907 5907 5907 5907 5906
5908 5908 5907 5907 5905 5904 5903 5902 5901 5901 5900 5900 5899 5899 5899 5899 5898 5899 5900 5900 5901 5902 5903 5904 5905 5906 5907 5908 5908 5908 5909 5908 5908 5908 5908 5908 5908 5908 5908 5908 5907 5907 5907 5907 5906 5906 5906 5905 5905
5906 5905 5905 5903 5901 5900 5899 5898 5898 5897 5896 5896 5896 5896 5895 5896 5896 5896 5897 5898 5899 5900 5901 5903 5904 5905 5906 5906 5907 5907 5907 5907 5907 5907 5907 5907 5907 5906 5906 5906 5905 5905 5905 5905 5904 5904 5904 5904 5904
5904 5903 5903 5901 5898 5896 5895 5895 5894 5893 5893 5893 5893 5892 5892 5892 5893 5894 5895 5896 5897 5899 5900 5901 5902 5903 5904 5905 5905 5906 5906 5906 5906 5905 5905 5905 5904 5904 5904 5904 5903 5903 5903 5902 5902 5902 5901 5901 5901
5903 5901 5900 5898 5895 5893 5892 5891 5890 5889 5889 5889 5889 5888 5889 5889 5890 5891 5892 5894 5895 5897 5898 5900 5901 5902 5903 5903 5904 5904 5904 5904 5904 5903 5903 5902 5902 5902 5901 5901 5901 5900 5900 5900 5900 5899 5899 5899 5899
5900 5900 5897 5895 5893 5891 5889 5888 5886 5886 5885 5885 5885 5885 5885 5886 5887 5888 5890 5892 5893 5895 5896 5898 5899 5900 5901 5901 5902 5902 5902 5902 5902 5901 5901 5900 5900 5899 5899 5898 5898 5898 5897 5897 5897 5897 5896 5896 5897
5898 5898 5896 5894 5892 5889 5887 5885 5883 5882 5881 5881 5880 5881 5881 5882 5883 5885 5887 5889 5891 5892 5894 5895 5897 5898 5899 5899 5900 5900 5900 5900 5899 5899 5898 5898 5897 5897 5896 5896 5895 5895 5895 5895 5895 5894 5894 5894 5894
5897 5896 5895 5892 5890 5887 5884 5882 5880 5879 5878 5877 5876 5876 5877 5877 5879 5881 5883 5885 5887 5889 5891 5893 5894 5895 5896 5897 5897 5898 5898 5897 5897 5897 5896 5895 5895 5894 5894 5893 5893 5892 5892 5892 5892 5892 5892 5891 5892
5896 5895 5893 5890 5888 5885 5882 5880 5878 5876 5875 5873 5872 5872 5872 5873 5875 5877 5878 5880 5883 5886 5888 5890 5891 5893 5894 5895 5895 5895 5895 5895 5895 5895 5894 5893 5893 5892 5891 5891 5891 5891 5890 5889 5889 5889 5890 5890 5890
5896 5894 5891 5889 5886 5883 5880 5878 5876 5873 5872 5870 5869 5868 5868 5869 5870 5872 5874 5877 5879 5882 5885 5887 5889 5890 5891 5892 5893 5893 5893 5893 5893 5893 5892 5892 5891 5890 5890 5889 5889 5889 5888 5888 5887 5887 5887 5888 5888
5895 5893 5890 5888 5885 5882 5879 5876 5873 5871 5869 5867 5865 5864 5864 5865 5866 5868 5870 5873 5876 5879 5881 5884 5886 5887 5888 5889 5890 5891 5891 5891 5891 5891 5890 5890 5889 5888 5888 5888 5887 5887 5886 5886 5886 5885 5886 5886 5886
5894 5892 5889 5887 5884 5880 5877 5874 5870 5868 5865 5863 5861 5860 5860 5861 5862 5864 5866 5869 5872 5875 5878 5880 5883 5884 5885 5887 5888 5888 5889 5889 5889 5889 5889 5888 5887 5887 5886 5886 5886 5885 5885 5885 5884 5884 5884 5884 5884
5893 5891 5888 5886 5883 5879 5876 5873 5868 5865 5862 5859 5857 5855 5856 5856 5857 5859 5861 5865 5868 5871 5874 5877 5879 5881 5883 5884 5885 5886 5887 5887 5888 5888 5887 5887 5886 5885 5885 5885 5884 5884 5884 5883 5883 5883 5883 5883 5883
5892 5890 5889 5885 5881 5878 5876 5872 5867 5863 5859 5856 5854 5852 5851 5851 5852 5854 5856 5860 5864 5867 5871 5874 5876 5878 5880 5882 5883 5884 5885 5886 5886 5886 5886 5885 5885 5885 5884 5884 5883 5883 5882 5882 5882 5882 5882 5882 5882
5893 5892 5888 5884 5880 5877 5874 5870 5865 5861 5857 5854 5851 5849 5848 5848 5848 5850 5853 5856 5860 5864 5868 5871 5874 5876 5878 5880 5882 5883 5884 5885 5885 5885 5884 5884 5884 5884 5883 5883 5882 5882 5882 5881 5881 5881 5881 5881 5881
5893 5890 5887 5883 5879 5876 5872 5868 5864 5859 5855 5852 5849 5847 5846 5845 5846 5847 5850 5854 5857 5861 5866 5869 5872 5875 5877 5878 5880 5882 5883 5883 5884 5883 5883 5883 5883 5883 5883 5882 5882 5881 5881 5880 5880 5880 5880 5880 5880
5890 5888 5885 5882 5878 5875 5871 5867 5863 5859 5855 5851 5848 5846 5845 5844 5845 5846 5849 5852 5855 5859 5864 5867 5870 5873 5875 5877 5879 5880 5882 5882 5882 5882 5882 5883 5883 5883 5882 5882 5881 5881 5880 5880 5879 5879 5879 5879 5878
5889 5886 5884 5880 5876 5873 5870 5867 5863 5858 5855 5852 5849 5847 5845 5844 5844 5846 5848 5851 5855 5858 5862 5866 5869 5872 5874 5877 5878 5879 5880 5881 5881 5881 5882 5882 5882 5882 5882 5881 5881 5880 5880 5879 5879 5879 5878 5878 5878
5887 5885 5882 5879 5876 5872 5870 5867 5863 5859 5856 5853 5850 5847 5846 5845 5845 5846 5848 5851 5854 5858 5862 5865 5868 5871 5874 5875 5877 5878 5879 5880 5880 5881 5881 5881 5881 5881 5881 5881 5880 5880 5880 5879 5879 5878 5878 5878 5877
5886 5884 5881 5878 5875 5873 5871 5868 5864 5860 5856 5854 5851 5849 5847 5846 5846 5847 5849 5851 5854 5858 5861 5865 5868 5871 5873 5874 5876 5877 5878 5879 5879 5880 5880 5881 5881 5881 5880 5880 5880 5879 5879 5879 5878 5878 5877 5877 5876
5884 5882 5879 5876 5874 5872 5870 5868 5866 5861 5858 5855 5853 5851 5849 5849 5848 5849 5850 5852 5855 5859 5861 5865 5868 5870 5872 5874 5875 5876 5877 5878 5878 5879 5879 5880 5880 5880 5880 5879 5879 5879 5878 5878 5877 5877 5876 5875 5874
5882 5880 5878 5875 5874 5873 5870 5868 5866 5862 5860 5857 5855 5853 5852 5851 5851 5851 5852 5853 5856 5859 5862 5865 5867 5869 5871 5872 5873 5874 5875 5876 5877 5878 5878 5878 5879 5879 5878 5878 5878 5878 5877 5877 5876 5875 5874 5873 5872
5880 5879 5879 5878 5876 5874 5869 5867 5865 5862 5860 5858 5857 5856 5854 5854 5853 5853 5853 5854 5857 5859 5862 5864 5866 5868 5870 5871 5872 5873 5874 5875 5875 5876 5876 5877 5877 5877 5877 5877 5876 5876 5875 5875 5874 5873 5872 5871 5870
5877 5877 5877 5876 5875 5872 5867 5865 5864 5861 5860 5859 5857 5856 5856 5855 5855 5855 5854 5855 5858 5860 5862 5864 5866 5867 5869 5870 5871 5871 5872 5873 5874 5874 5874 5874 5875 5875 5875 5874 5874 5873 5873 5872 5871 5870 5869 5868 5866
5874 5873 5873 5872 5870 5869 5867 5864 5862 5860 5859 5858 5857 5857 5856 5856 5856 5856 5856 5857 5858 5860 5861 5863 5865 5866 5867 5868 5869 5870 5870 5871 5871 5871 5872 5872 5872 5872 5872 5871 5871 5870 5869 5868 5867 5866 5865 5864 5862
5870 5869 5869 5868 5867 5867 5866 5864 5862 5859 5858 5857 5857 5856 5856 5856 5856 5856 5856 5857 5858 5859 5861 5862 5863 5864 5865 5866 5866 5867 5868 5868 5868 5868 5868 5868 5868 5868 5868 5867 5867 5866 5865 5864 5862 5861 5860 5859 5857
5866 5866 5865 5865 5864 5864 5864 5864 5858 5857 5856 5855 5855 5855 5855 5855 5855 5855 5856 5856 5857 5858 5859 5860 5861 5862 5862 5863 5863 5864 5864 5865 5865 5865 5865 5864 5864 5864 5863 5863 5862 5861 5860 5858 5857 5856 5854 5853 5851
5861 5861 5861 5862 5860 5859 5860 5862 5855 5854 5854 5853 5853 5853 5853 5853 5853 5853 5853 5854 5855 5856 5856 5857 5858 5858 5859 5859 5859 5860 5860 5860 5860 5860 5860 5860 5859 5859 5858 5857 5856 5855 5853 5852 5850 5849 5847 5846 5844